Simultaneous Nadir Overpasses (SNOs) Predictions

Prediction of SNOs between METOP-B and TERRA Satellite Orbit:

Table of predicted SNOs for the next 14.0 days since TLE Epoch: 4/3/2020
Index Date (METOP-B) Time (METOP-B) Lat,Lon (METOP-B) SZA (METOP-B ) Date (TERRA) Time (TERRA) Lat,Lon (TERRA) SZA (TERRA ) Distance(km) Time Diff (sec)
1 04/04/2020 02:15:17 81.31,-166.50 78.22 04/04/2020 02:15:20 81.31,-166.33 78.24 2.77 3
2 04/04/2020 03:05:56 -81.32, 1.42 101.73 04/04/2020 03:04:46 -81.32, 1.60 101.74 3.25 70
3 04/06/2020 20:58:59 -81.31, 92.51 102.82 04/06/2020 21:00:07 -81.31, 92.58 102.78 1.32 68
4 04/06/2020 21:49:39 81.31, -99.73 77.22 04/06/2020 21:49:33 81.32, -99.71 77.23 0.72 6
5 04/09/2020 16:33:22 -81.31, 158.88 103.84 04/09/2020 16:34:21 -81.30, 158.81 103.83 1.25 59
6 04/09/2020 17:24:02 81.31, -33.38 76.20 04/09/2020 17:23:47 81.31, -33.50 76.17 2.16 15
7 04/12/2020 12:07:44 -81.31,-134.76 104.86 04/12/2020 12:08:33 -81.31,-134.61 104.81 2.64 49
8 04/12/2020 12:58:24 81.31, 32.96 75.19 04/12/2020 12:57:59 81.31, 33.06 75.18 1.66 25
9 04/15/2020 07:42:06 -81.31, -68.03 105.80 04/15/2020 07:42:46 -81.32, -68.06 105.78 0.75 40




NCC Satellite Simultaneous Nadir Overpasses (SNOs) Prediction Service
